QPF
0.04 0.03 0.04 0.04 0.06 0.05 0.07 0.08 0.11 0.12 0.15 0.13 0.09 0.07 0.06 0.07 0.07 0.07 0.07 0.06 0.04 0.05 0.06 0.07 0.07 0.06 0.08 0.06 0.04 0.04 0.06 0.05 0.03 0.05 0.07 0.08 0.06 0.08 0.08 0.06 0.08 0.09 0.09
0.04 0.03 0.04 0.06 0.05 0.05 0.07 0.08 0.10 0.11 0.12 0.11 0.09 0.07 0.07 0.06 0.06 0.08 0.10 0.07 0.05 0.04 0.04 0.06 0.06 0.06 0.06 0.05 0.05 0.05 0.08 0.07 0.03 0.04 0.08 0.10 0.12 0.11 0.05 0.04 0.04 0.06 0.06
0.03 0.03 0.03 0.06 0.06 0.07 0.08 0.08 0.09 0.10 0.12 0.12 0.11 0.10 0.09 0.09 0.09 0.10 0.10 0.08 0.06 0.03 0.02 0.03 0.04 0.04 0.03 0.05 0.06 0.05 0.05 0.07 0.05 0.03 0.04 0.09 0.11 0.10 0.07 0.03 0.03 0.03 0.05
0.04 0.03 0.03 0.04 0.05 0.07 0.09 0.11 0.10 0.11 0.13 0.12 0.11 0.08 0.06 0.08 0.08 0.08 0.08 0.07 0.06 0.04 0.02 0.03 0.03 0.03 0.03 0.06 0.04 0.05 0.04 0.05 0.04 0.03 0.02 0.03 0.06 0.06 0.09 0.07 0.04 0.02 0.02
0.03 0.02 0.02 0.03 0.04 0.06 0.08 0.11 0.12 0.13 0.17 0.17 0.12 0.11 0.09 0.08 0.08 0.09 0.10 0.08 0.06 0.04 0.03 0.03 0.03 0.03 0.03 0.04 0.04 0.05 0.04 0.03 0.03 0.03 0.02 0.02 0.02 0.02 0.05 0.08 0.05 0.02 0.01
0.02 0.02 0.04 0.06 0.08 0.09 0.09 0.10 0.13 0.14 0.17 0.20 0.16 0.13 0.10 0.09 0.09 0.10 0.10 0.07 0.05 0.05 0.04 0.03 0.03 0.02 0.03 0.03 0.04 0.04 0.03 0.03 0.03 0.03 0.02 0.01 0.01 0.01 0.02 0.04 0.04 0.03 0.01
0.01 0.02 0.06 0.08 0.09 0.10 0.08 0.08 0.09 0.10 0.13 0.17 0.15 0.11 0.10 0.13 0.10 0.09 0.10 0.07 0.06 0.05 0.04 0.03 0.04 0.03 0.02 0.02 0.02 0.02 0.03 0.03 0.02 0.02 0.01 0.01 0.00 0.00 0.01 0.01 0.01 0.01 0.01
0.00 0.02 0.05 0.08 0.08 0.08 0.08 0.09 0.09 0.09 0.10 0.13 0.12 0.09 0.08 0.08 0.09 0.09 0.08 0.07 0.06 0.05 0.03 0.03 0.03 0.03 0.02 0.01 0.01 0.01 0.01 0.02 0.01 0.01 0.00 0.01 0.01 0.01 0.01 0.00 0.00 0.00 0.01
0.00 0.02 0.04 0.04 0.04 0.06 0.08 0.08 0.08 0.07 0.09 0.09 0.09 0.08 0.06 0.05 0.06 0.06 0.07 0.06 0.05 0.04 0.04 0.03 0.02 0.02 0.02 0.01 0.01 0.01 0.01 0.01 0.00 0.00 0.01 0.01 0.00 0.00 0.00 0.00 0.00 0.00 0.01
0.00 0.01 0.02 0.03 0.03 0.03 0.05 0.06 0.07 0.07 0.07 0.07 0.05 0.05 0.05 0.05 0.06 0.06 0.05 0.06 0.05 0.04 0.05 0.04 0.03 0.02 0.01 0.01 0.01 0.01 0.00 0.00 0.00 0.00 0.00 0.01 0.00 0.00 0.00 0.00 0.00 0.00 0.00
0.00 0.01 0.02 0.02 0.02 0.02 0.03 0.04 0.05 0.07 0.06 0.06 0.06 0.06 0.05 0.04 0.05 0.05 0.05 0.04 0.04 0.04 0.03 0.03 0.02 0.02 0.01 0.00 0.01 0.01 0.00 0.00 0.00 0.00 0.00 0.00 0.00 0.00 0.00 0.00 0.00 0.00 0.00
0.00 0.00 0.02 0.01 0.01 0.01 0.02 0.03 0.04 0.05 0.05 0.06 0.06 0.06 0.06 0.05 0.04 0.04 0.04 0.03 0.03 0.03 0.02 0.02 0.01 0.01 0.01 0.01 0.00 0.00 0.00 0.00 0.00 0.00 0.00 0.00 0.00 0.00 0.00 0.00 0.00 0.00 0.00
0.00 0.01 0.01 0.01 0.02 0.01 0.01 0.01 0.01 0.03 0.05 0.05 0.06 0.06 0.06 0.06 0.05 0.04 0.04 0.03 0.02 0.02 0.01 0.01 0.01 0.01 0.01 0.01 0.00 0.00 0.00 0.00 0.00 0.00 0.00 0.00 0.00 0.00 0.00 0.01 0.01 0.00 0.00
0.01 0.02 0.04 0.03 0.02 0.01 0.01 0.01 0.01 0.02 0.03 0.04 0.06 0.06 0.04 0.04 0.04 0.03 0.03 0.02 0.02 0.01 0.01 0.01 0.01 0.01 0.01 0.00 0.00 0.00 0.00 0.00 0.00 0.00 0.00 0.00 0.00 0.00 0.00 0.01 0.01 0.01 0.00
0.01 0.02 0.04 0.05 0.04 0.03 0.03 0.02 0.01 0.02 0.03 0.05 0.05 0.05 0.04 0.04 0.04 0.03 0.03 0.02 0.02 0.02 0.01 0.01 0.01 0.01 0.00 0.00 0.00 0.00 0.00 0.00 0.00 0.00 0.00 0.00 0.00 0.00 0.00 0.00 0.00 0.00 0.00
0.01 0.02 0.03 0.06 0.07 0.05 0.04 0.04 0.04 0.03 0.04 0.05 0.04 0.05 0.05 0.04 0.03 0.03 0.03 0.02 0.02 0.03 0.02 0.02 0.01 0.01 0.00 0.00 0.00 0.00 0.00 0.00 0.00 0.01 0.01 0.00 0.00 0.00 0.00 0.00 0.00 0.00 0.00
0.01 0.01 0.01 0.04 0.06 0.05 0.04 0.05 0.05 0.03 0.03 0.03 0.04 0.04 0.05 0.05 0.04 0.03 0.03 0.03 0.03 0.03 0.02 0.03 0.03 0.02 0.01 0.01 0.00 0.00 0.00 0.00 0.00 0.01 0.01 0.01 0.00 0.00 0.00 0.00 0.00 0.00 0.00
0.00 0.01 0.01 0.01 0.02 0.03 0.03 0.02 0.03 0.03 0.02 0.02 0.03 0.04 0.04 0.04 0.04 0.04 0.04 0.03 0.03 0.02 0.02 0.02 0.03 0.03 0.02 0.01 0.00 0.00 0.00 0.00 0.00 0.01 0.01 0.01 0.01 0.00 0.00 0.00 0.00 0.00 0.00
0.00 0.00 0.01 0.01 0.01 0.02 0.03 0.03 0.03 0.03 0.02 0.02 0.03 0.04 0.04 0.04 0.04 0.04 0.03 0.03 0.03 0.02 0.01 0.02 0.02 0.01 0.01 0.00 0.00 0.00 0.00 0.00 0.00 0.01 0.01 0.01 0.00 0.00 0.00 0.00 0.00 0.00 0.00
0.00 0.00 0.00 0.01 0.01 0.02 0.03 0.05 0.05 0.05 0.06 0.04 0.05 0.06 0.06 0.05 0.05 0.04 0.03 0.03 0.03 0.02 0.01 0.01 0.01 0.01 0.00 0.00 0.00 0.00 0.00 0.00 0.01 0.01 0.01 0.00 0.00 0.00 0.00 0.00 0.00 0.00 0.01
0.00 0.00 0.00 0.01 0.01 0.02 0.03 0.06 0.06 0.07 0.10 0.08 0.06 0.08 0.08 0.08 0.08 0.07 0.05 0.04 0.03 0.02 0.01 0.01 0.01 0.01 0.01 0.01 0.01 0.00 0.00 0.01 0.01 0.01 0.01 0.00 0.00 0.00 0.00 0.00 0.00 0.00 0.00
0.00 0.01 0.01 0.01 0.01 0.02 0.04 0.06 0.06 0.06 0.08 0.08 0.08 0.09 0.11 0.10 0.09 0.09 0.06 0.05 0.04 0.03 0.03 0.03 0.03 0.04 0.04 0.03 0.02 0.01 0.01 0.02 0.02 0.02 0.01 0.01 0.02 0.01 0.01 0.01 0.00 0.00 0.00
0.00 0.01 0.01 0.01 0.02 0.03 0.04 0.04 0.05 0.06 0.07 0.09 0.10 0.11 0.13 0.13 0.11 0.10 0.09 0.07 0.07 0.07 0.06 0.06 0.06 0.05 0.05 0.04 0.04 0.03 0.03 0.02 0.02 0.02 0.02 0.02 0.02 0.02 0.01 0.01 0.01 0.01 0.01
0.02 0.01 0.01 0.02 0.03 0.04 0.05 0.04 0.05 0.06 0.07 0.09 0.11 0.12 0.13 0.13 0.12 0.13 0.11 0.10 0.09 0.08 0.08 0.07 0.06 0.06 0.05 0.05 0.05 0.04 0.04 0.04 0.04 0.04 0.04 0.04 0.03 0.02 0.02 0.01 0.01 0.01 0.01
0.02 0.02 0.02 0.03 0.03 0.05 0.06 0.05 0.04 0.05 0.06 0.08 0.09 0.11 0.14 0.15 0.14 0.13 0.12 0.12 0.11 0.10 0.09 0.08 0.07 0.07 0.07 0.06 0.05 0.06 0.05 0.05 0.05 0.03 0.03 0.03 0.03 0.03 0.02 0.02 0.02 0.03 0.03
0.02 0.02 0.03 0.03 0.04 0.06 0.07 0.07 0.08 0.08 0.08 0.09 0.10 0.13 0.16 0.17 0.16 0.14 0.13 0.12 0.11 0.11 0.10 0.09 0.09 0.08 0.07 0.06 0.05 0.04 0.04 0.04 0.03 0.03 0.02 0.02 0.02 0.03 0.03 0.03 0.03 0.03 0.03
MSLP
1004.01 1004.86 1005.65 1006.34 1006.92 1007.40 1007.84 1008.27 1008.73 1009.23 1009.78 1010.34 1010.87 1011.33 1011.71 1011.98 1012.17 1012.31 1012.45 1012.61 1012.84 1013.14 1013.51 1013.93 1014.37 1014.77 1015.12 1015.40 1015.60 1015.72 1015.80 1015.86 1015.92 1016.00 1016.11 1016.24 1016.38 1016.53 1016.67 1016.80 1016.92 1017.04 1017.16
1004.18 1005.05 1005.82 1006.46 1006.96 1007.34 1007.67 1008.02 1008.44 1008.95 1009.55 1010.20 1010.83 1011.40 1011.86 1012.17 1012.37 1012.47 1012.55 1012.64 1012.81 1013.07 1013.43 1013.86 1014.32 1014.77 1015.15 1015.45 1015.66 1015.78 1015.85 1015.89 1015.95 1016.03 1016.15 1016.30 1016.47 1016.64 1016.79 1016.90 1016.98 1017.04 1017.09
1004.37 1005.23 1005.98 1006.56 1006.96 1007.23 1007.44 1007.69 1008.05 1008.55 1009.19 1009.91 1010.65 1011.33 1011.88 1012.27 1012.50 1012.61 1012.65 1012.71 1012.83 1013.06 1013.40 1013.83 1014.31 1014.78 1015.19 1015.51 1015.73 1015.85 1015.90 1015.93 1015.97 1016.04 1016.17 1016.33 1016.51 1016.68 1016.83 1016.92 1016.96 1016.97 1016.94
1004.50 1005.34 1006.06 1006.58 1006.89 1007.06 1007.16 1007.31 1007.60 1008.07 1008.72 1009.50 1010.33 1011.11 1011.78 1012.26 1012.55 1012.69 1012.74 1012.78 1012.88 1013.08 1013.41 1013.84 1014.33 1014.81 1015.25 1015.58 1015.80 1015.93 1015.97 1015.99 1016.01 1016.07 1016.19 1016.34 1016.52 1016.70 1016.83 1016.90 1016.91 1016.86 1016.78
1004.49 1005.34 1006.04 1006.52 1006.78 1006.86 1006.87 1006.93 1007.14 1007.57 1008.21 1009.02 1009.92 1010.79 1011.56 1012.14 1012.51 1012.71 1012.80 1012.85 1012.94 1013.13 1013.44 1013.86 1014.35 1014.84 1015.29 1015.64 1015.88 1016.01 1016.05 1016.06 1016.08 1016.13 1016.23 1016.38 1016.55 1016.71 1016.83 1016.89 1016.87 1016.78 1016.65
1004.36 1005.21 1005.92 1006.40 1006.63 1006.68 1006.63 1006.62 1006.76 1007.13 1007.74 1008.55 1009.48 1010.42 1011.26 1011.93 1012.39 1012.67 1012.81 1012.89 1012.99 1013.17 1013.47 1013.87 1014.35 1014.85 1015.30 1015.67 1015.92 1016.07 1016.13 1016.14 1016.16 1016.21 1016.30 1016.44 1016.60 1016.75 1016.86 1016.90 1016.86 1016.75 1016.59
1004.13 1004.99 1005.74 1006.25 1006.51 1006.56 1006.49 1006.44 1006.52 1006.83 1007.39 1008.18 1009.10 1010.07 1010.96 1011.69 1012.23 1012.57 1012.77 1012.89 1013.01 1013.19 1013.48 1013.87 1014.33 1014.81 1015.26 1015.64 1015.91 1016.08 1016.17 1016.20 1016.23 1016.28 1016.37 1016.51 1016.66 1016.81 1016.91 1016.95 1016.90 1016.78 1016.61
1003.86 1004.76 1005.56 1006.14 1006.46 1006.55 1006.50 1006.43 1006.48 1006.73 1007.23 1007.95 1008.84 1009.79 1010.69 1011.46 1012.05 1012.45 1012.70 1012.86 1013.00 1013.19 1013.46 1013.83 1014.27 1014.74 1015.18 1015.56 1015.85 1016.04 1016.15 1016.21 1016.26 1016.32 1016.42 1016.55 1016.71 1016.86 1016.97 1017.01 1016.98 1016.88 1016.71
1003.63 1004.57 1005.43 1006.09 1006.49 1006.65 1006.65 1006.60 1006.63 1006.83 1007.26 1007.90 1008.72 1009.61 1010.48 1011.25 1011.86 1012.30 1012.59 1012.79 1012.96 1013.16 1013.42 1013.77 1014.19 1014.63 1015.07 1015.44 1015.74 1015.95 1016.09 1016.17 1016.23 1016.31 1016.42 1016.56 1016.72 1016.88 1017.01 1017.08 1017.08 1017.00 1016.86
1003.47 1004.44 1005.36 1006.10 1006.60 1006.85 1006.92 1006.91 1006.93 1007.10 1007.45 1008.01 1008.73 1009.53 1010.35 1011.08 1011.69 1012.14 1012.47 1012.70 1012.89 1013.10 1013.36 1013.70 1014.09 1014.52 1014.93 1015.31 1015.61 1015.83 1015.98 1016.08 1016.16 1016.25 1016.36 1016.51 1016.67 1016.85 1017.00 1017.10 1017.14 1017.11 1017.01
1003.40 1004.38 1005.34 1006.14 1006.72 1007.06 1007.21 1007.26 1007.31 1007.45 1007.74 1008.21 1008.82 1009.53 1010.26 1010.93 1011.51 1011.96 1012.30 1012.56 1012.78 1013.01 1013.28 1013.61 1014.00 1014.41 1014.81 1015.18 1015.48 1015.71 1015.87 1015.97 1016.06 1016.14 1016.25 1016.40 1016.57 1016.75 1016.92 1017.06 1017.14 1017.16 1017.11
1003.38 1004.34 1005.31 1006.15 1006.80 1007.22 1007.46 1007.57 1007.65 1007.79 1008.04 1008.42 1008.94 1009.54 1010.17 1010.78 1011.31 1011.74 1012.09 1012.37 1012.62 1012.88 1013.17 1013.51 1013.90 1014.31 1014.71 1015.07 1015.37 1015.60 1015.75 1015.86 1015.94 1016.02 1016.11 1016.24 1016.40 1016.58 1016.77 1016.93 1017.06 1017.12 1017.12
1003.35 1004.28 1005.22 1006.07 1006.75 1007.24 1007.55 1007.74 1007.87 1008.02 1008.25 1008.59 1009.02 1009.53 1010.07 1010.59 1011.07 1011.48 1011.83 1012.12 1012.40 1012.69 1013.02 1013.38 1013.78 1014.20 1014.60 1014.97 1015.27 1015.50 1015.66 1015.76 1015.82 1015.88 1015.95 1016.06 1016.20 1016.36 1016.55 1016.72 1016.87 1016.98 1017.02
1003.27 1004.13 1005.01 1005.83 1006.53 1007.06 1007.44 1007.71 1007.91 1008.11 1008.35 1008.66 1009.03 1009.47 1009.93 1010.39 1010.81 1011.19 1011.52 1011.83 1012.14 1012.46 1012.81 1013.21 1013.63 1014.06 1014.48 1014.86 1015.17 1015.40 1015.56 1015.65 1015.71 1015.74 1015.79 1015.86 1015.96 1016.10 1016.27 1016.44 1016.60 1016.72 1016.78
1003.10 1003.86 1004.66 1005.43 1006.11 1006.68 1007.12 1007.47 1007.76 1008.02 1008.30 1008.62 1008.98 1009.37 1009.77 1010.17 1010.54 1010.89 1011.21 1011.52 1011.84 1012.18 1012.56 1012.97 1013.42 1013.87 1014.31 1014.70 1015.03 1015.27 1015.44 1015.53 1015.58 1015.60 1015.61 1015.65 1015.72 1015.82 1015.95 1016.09 1016.23 1016.35 1016.42
1002.83 1003.48 1004.18 1004.88 1005.53 1006.12 1006.62 1007.05 1007.43 1007.78 1008.13 1008.49 1008.86 1009.24 1009.61 1009.97 1010.31 1010.62 1010.92 1011.22 1011.53 1011.88 1012.27 1012.70 1013.15 1013.62 1014.07 1014.48 1014.82 1015.08 1015.26 1015.37 1015.41 1015.42 1015.42 1015.43 1015.46 1015.52 1015.60 1015.71 1015.81 1015.90 1015.96
1002.49 1003.02 1003.60 1004.22 1004.84 1005.43 1005.98 1006.49 1006.97 1007.42 1007.86 1008.29 1008.70 1009.10 1009.47 1009.82 1010.13 1010.42 1010.69 1010.97 1011.27 1011.60 1011.98 1012.39 1012.84 1013.31 1013.76 1014.17 1014.53 1014.81 1015.01 1015.13 1015.19 1015.20 1015.19 1015.18 1015.18 1015.19 1015.23 1015.29 1015.35 1015.40 1015.42
1002.14 1002.54 1003.01 1003.54 1004.10 1004.68 1005.26 1005.84 1006.41 1006.97 1007.50 1008.02 1008.50 1008.95 1009.35 1009.70 1010.01 1010.29 1010.54 1010.80 1011.06 1011.37 1011.71 1012.10 1012.52 1012.96 1013.39 1013.80 1014.16 1014.46 1014.68 1014.82 1014.90 1014.92 1014.92 1014.89 1014.87 1014.86 1014.85 1014.86 1014.87 1014.87 1014.85
1001.84 1002.11 1002.46 1002.89 1003.38 1003.93 1004.52 1005.14 1005.78 1006.43 1007.06 1007.66 1008.23 1008.74 1009.20 1009.59 1009.92 1010.20 1010.44 1010.68 1010.92 1011.18 1011.48 1011.82 1012.20 1012.60 1013.00 1013.39 1013.74 1014.04 1014.27 1014.44 1014.54 1014.58 1014.59 1014.57 1014.54 1014.50 1014.46 1014.43 1014.40 1014.35 1014.28
1001.66 1001.80 1002.02 1002.33 1002.73 1003.22 1003.79 1004.41 1005.09 1005.79 1006.49 1007.18 1007.82 1008.42 1008.94 1009.39 1009.76 1010.07 1010.34 1010.57 1010.79 1011.02 1011.28 1011.58 1011.90 1012.25 1012.62 1012.97 1013.30 1013.60 1013.84 1014.01 1014.13 1014.20 1014.22 1014.21 1014.17 1014.13 1014.07 1014.01 1013.94 1013.86 1013.76
1001.65 1001.66 1001.75 1001.92 1002.20 1002.59 1003.08 1003.67 1004.33 1005.04 1005.78 1006.52 1007.24 1007.90 1008.50 1009.02 1009.46 1009.83 1010.13 1010.39 1010.62 1010.84 1011.08 1011.33 1011.62 1011.93 1012.25 1012.57 1012.88 1013.16 1013.39 1013.58 1013.71 1013.79 1013.83 1013.83 1013.80 1013.75 1013.69 1013.61 1013.52 1013.42 1013.29
1001.88 1001.75 1001.68 1001.70 1001.83 1002.08 1002.45 1002.94 1003.53 1004.20 1004.93 1005.68 1006.43 1007.15 1007.82 1008.42 1008.94 1009.38 1009.74 1010.06 1010.33 1010.57 1010.81 1011.06 1011.33 1011.61 1011.90 1012.20 1012.48 1012.75 1012.97 1013.16 1013.30 1013.39 1013.43 1013.44 1013.42 1013.38 1013.32 1013.24 1013.15 1013.03 1012.90
1002.35 1002.08 1001.86 1001.71 1001.66 1001.73 1001.94 1002.28 1002.75 1003.33 1003.99 1004.71 1005.45 1006.19 1006.91 1007.57 1008.17 1008.69 1009.15 1009.54 1009.87 1010.18 1010.46 1010.73 1011.00 1011.28 1011.57 1011.85 1012.13 1012.38 1012.60 1012.78 1012.92 1013.02 1013.07 1013.09 1013.07 1013.04 1012.98 1012.91 1012.82 1012.71 1012.59
1003.09 1002.69 1002.30 1001.98 1001.75 1001.63 1001.64 1001.80 1002.10 1002.53 1003.07 1003.71 1004.40 1005.12 1005.85 1006.55 1007.21 1007.82 1008.36 1008.84 1009.27 1009.65 1009.99 1010.32 1010.63 1010.94 1011.25 1011.54 1011.82 1012.07 1012.29 1012.47 1012.61 1012.71 1012.76 1012.78 1012.77 1012.74 1012.69 1012.63 1012.56 1012.47 1012.36
1004.07 1003.56 1003.04 1002.56 1002.15 1001.84 1001.65 1001.61 1001.72 1001.97 1002.36 1002.86 1003.46 1004.12 1004.82 1005.53 1006.22 1006.88 1007.50 1008.06 1008.57 1009.04 1009.47 1009.87 1010.25 1010.61 1010.95 1011.27 1011.57 1011.84 1012.06 1012.25 1012.39 1012.48 1012.54 1012.56 1012.55 1012.52 1012.48 1012.44 1012.38 1012.30 1012.22
1005.26 1004.68 1004.07 1003.46 1002.91 1002.44 1002.08 1001.84 1001.76 1001.83 1002.04 1002.38 1002.85 1003.40 1004.03 1004.70 1005.39 1006.07 1006.72 1007.35 1007.93 1008.48 1008.98 1009.46 1009.90 1010.32 1010.71 1011.07 1011.40 1011.69 1011.93 1012.12 1012.27 1012.37 1012.42 1012.44 1012.44 1012.42 1012.38 1012.34 1012.30 1012.24 1012.17
Thickness
5800 5798 5793 5788 5781 5776 5771 5766 5763 5760 5757 5753 5750 5750 5749 5751 5752 5752 5751 5750 5750 5749 5748 5749 5748 5747 5745 5744 5743 5742 5740 5738 5740 5736 5733 5735 5737 5735 5734 5735 5734 5733 5731
5796 5792 5788 5783 5778 5772 5768 5763 5760 5757 5755 5753 5752 5751 5751 5750 5750 5750 5749 5748 5748 5748 5748 5747 5747 5746 5744 5743 5742 5741 5738 5738 5740 5734 5728 5724 5726 5731 5737 5735 5734 5733 5731
5795 5789 5784 5779 5775 5770 5765 5762 5759 5757 5754 5753 5751 5749 5747 5746 5746 5745 5746 5747 5747 5747 5747 5746 5747 5746 5745 5742 5742 5741 5738 5736 5739 5739 5732 5724 5719 5723 5730 5733 5733 5733 5731
5796 5789 5783 5777 5773 5770 5766 5762 5758 5756 5754 5752 5749 5746 5743 5741 5743 5744 5744 5745 5745 5745 5745 5746 5746 5745 5745 5743 5742 5742 5741 5738 5736 5738 5738 5735 5732 5724 5720 5726 5730 5732 5730
5798 5790 5785 5779 5774 5770 5766 5761 5757 5754 5753 5751 5748 5746 5744 5744 5744 5743 5742 5742 5743 5744 5744 5744 5744 5744 5744 5743 5743 5742 5741 5740 5738 5738 5738 5736 5735 5734 5725 5719 5723 5727 5730
5799 5793 5787 5780 5773 5770 5766 5762 5756 5753 5752 5749 5747 5744 5743 5742 5741 5740 5739 5740 5741 5742 5743 5743 5743 5743 5743 5743 5742 5741 5741 5740 5740 5739 5739 5737 5734 5732 5730 5724 5722 5722 5726
5800 5792 5784 5777 5772 5768 5765 5761 5756 5752 5750 5747 5745 5743 5742 5741 5740 5740 5739 5739 5739 5740 5741 5743 5742 5742 5742 5742 5742 5740 5741 5740 5739 5738 5739 5739 5739 5738 5735 5729 5725 5724 5725
5801 5792 5785 5778 5773 5769 5765 5760 5755 5751 5749 5746 5743 5742 5741 5741 5740 5741 5741 5741 5741 5742 5741 5741 5741 5741 5741 5741 5740 5740 5740 5739 5738 5738 5737 5737 5738 5739 5736 5732 5727 5721 5722
5800 5793 5786 5781 5776 5771 5766 5762 5756 5751 5748 5746 5743 5740 5740 5740 5740 5741 5741 5741 5742 5742 5741 5740 5740 5740 5740 5740 5739 5739 5738 5737 5736 5736 5736 5735 5736 5737 5736 5734 5731 5723 5716
5800 5793 5788 5783 5778 5773 5768 5763 5758 5753 5749 5746 5744 5741 5740 5741 5741 5740 5740 5741 5742 5742 5740 5739 5739 5738 5738 5738 5737 5736 5736 5735 5734 5734 5733 5732 5734 5734 5734 5733 5731 5728 5722
5799 5793 5788 5785 5780 5774 5769 5763 5758 5753 5749 5747 5745 5743 5741 5741 5740 5740 5740 5740 5740 5739 5738 5738 5737 5737 5736 5736 5735 5735 5734 5733 5733 5732 5731 5730 5730 5729 5729 5730 5728 5726 5723
5800 5795 5790 5785 5779 5774 5769 5763 5759 5755 5752 5749 5746 5744 5742 5741 5739 5739 5739 5739 5738 5738 5737 5737 5736 5735 5735 5735 5734 5733 5733 5732 5730 5730 5729 5728 5728 5726 5724 5724 5723 5722 5721
5796 5792 5787 5783 5778 5774 5770 5765 5761 5757 5754 5751 5747 5744 5742 5740 5739 5739 5739 5738 5737 5737 5737 5736 5736 5735 5735 5734 5733 5733 5732 5732 5730 5729 5727 5725 5724 5722 5721 5720 5719 5718 5718
5792 5788 5783 5780 5778 5775 5771 5766 5763 5760 5756 5752 5748 5745 5743 5741 5740 5740 5739 5738 5738 5736 5736 5736 5736 5735 5734 5733 5732 5732 5731 5730 5729 5728 5726 5724 5722 5720 5717 5716 5715 5714 5712
5786 5784 5781 5778 5776 5775 5772 5769 5765 5762 5759 5754 5750 5747 5746 5744 5742 5740 5739 5738 5737 5737 5736 5735 5735 5734 5734 5733 5732 5731 5729 5727 5726 5725 5724 5723 5721 5718 5716 5714 5711 5709 5707
5783 5782 5779 5776 5773 5772 5771 5769 5766 5764 5761 5755 5752 5750 5748 5745 5742 5741 5739 5738 5737 5737 5736 5734 5733 5733 5734 5734 5731 5729 5728 5725 5723 5721 5720 5719 5717 5715 5712 5710 5707 5704 5701
5781 5779 5777 5775 5772 5771 5771 5767 5766 5764 5760 5756 5754 5752 5749 5746 5744 5742 5740 5738 5737 5736 5735 5734 5733 5732 5732 5731 5729 5726 5724 5723 5721 5719 5717 5716 5717 5714 5711 5707 5704 5701 5698
5778 5778 5776 5774 5773 5772 5770 5768 5767 5764 5760 5757 5755 5753 5750 5747 5745 5743 5741 5739 5737 5735 5734 5733 5732 5731 5729 5727 5725 5723 5721 5719 5718 5716 5715 5713 5711 5711 5708 5705 5701 5698 5696
5776 5776 5777 5775 5773 5771 5770 5767 5765 5762 5759 5757 5755 5754 5751 5748 5745 5742 5741 5739 5737 5735 5733 5732 5730 5728 5726 5723 5720 5718 5716 5714 5713 5713 5712 5711 5708 5706 5703 5699 5696 5693 5692
5772 5773 5774 5773 5769 5768 5768 5765 5762 5760 5757 5757 5756 5756 5753 5749 5745 5743 5741 5739 5736 5734 5732 5731 5729 5727 5725 5720 5716 5713 5712 5710 5709 5709 5708 5706 5704 5701 5698 5694 5690 5686 5685
5765 5768 5768 5766 5765 5766 5764 5760 5759 5758 5758 5757 5756 5755 5752 5748 5745 5742 5740 5737 5734 5731 5729 5728 5727 5725 5724 5718 5713 5710 5710 5707 5705 5705 5704 5703 5699 5695 5692 5689 5685 5682 5679
5757 5760 5759 5759 5761 5762 5760 5756 5755 5757 5757 5755 5753 5751 5748 5746 5744 5739 5736 5734 5731 5727 5725 5723 5722 5722 5720 5717 5710 5706 5704 5703 5701 5700 5699 5697 5694 5690 5686 5681 5679 5675 5671
5749 5751 5752 5751 5753 5755 5755 5752 5752 5754 5753 5751 5748 5746 5745 5742 5741 5737 5732 5729 5726 5724 5722 5720 5718 5717 5717 5714 5709 5702 5699 5696 5694 5694 5692 5689 5686 5683 5679 5676 5672 5668 5664
5739 5742 5743 5742 5744 5748 5749 5749 5750 5750 5747 5744 5743 5741 5739 5736 5735 5733 5730 5727 5724 5721 5720 5718 5716 5715 5714 5711 5706 5700 5693 5689 5686 5684 5683 5680 5677 5674 5672 5670 5665 5662 5660
5728 5732 5733 5733 5736 5740 5742 5743 5745 5744 5741 5739 5737 5735 5733 5730 5728 5726 5722 5722 5721 5719 5717 5716 5714 5711 5708 5706 5703 5698 5692 5687 5682 5678 5674 5672 5670 5667 5665 5664 5662 5659 5655
5719 5722 5724 5726 5729 5732 5734 5736 5737 5737 5734 5731 5730 5729 5727 5725 5721 5717 5713 5710 5711 5710 5709 5709 5707 5705 5702 5699 5695 5691 5686 5680 5675 5669 5667 5665 5663 5661 5659 5657 5655 5652 5649